Starlink 3551

operational
NORAD ID: 51887 Int'l Des: 2022-022 Owner: SPXS Country: US Constellation: starlink
LEOCIRCULAR

About Starlink 3551

Description loading...

Live Position

Loading 3D Globe...

Upcoming Passes

Altitude History

Altitude vs Time

uPlot chart will show altitude changes over time

Two-Line Element Set

1 51887U 22022AM 25261.20345244 .00000196 00000-0 30420-4 0 9996
2 51887 53.2178 53.4401 0001302 92.9795 267.1346 15.08851604197207
Epoch: Sep 18, 2025 • Age: 15 hours

Current Status

Altitude 545.1 km
Velocity 7.60 km/s
Sub-Earth Point 51.70°N, 169.97°W
Launch Date Mar 3, 2022
Age 3.5 years
Type internet

Technical Details

Classification Payload
Mass 297.00 kg
Dry Mass 275.00 kg
Total Mass 297.00 kg
Length 0.20 m
Diameter 2.80 m
Span 9.00 m
Shape Box + pan
Manufacturer SPXS
Bus Type Starlink
Phase Status In Orbit
Owner/State SPXS/US

Large Constellations

Loading constellations...